Location: Bon Acre
(42.6442°N, 73.5758°W)
Time: 03:30:37
(UTC+00:00)

SL-08 R/B - Pass Details

Date: 18 March 2026
Orbit: 946 x 992 km, 83.0° (Epoch: 13 April)

Event Time Altitude Azimuth Distance (km) Brightness Sun altitude
Exits shadow 01:47:25 44° 211° (SSW) 1,284 5.0 -29.8°
Maximum altitude 01:49:22 70° 279° (W) 1,008 4.6 -30.1°
Drops below altitude 10° 01:55:27 10° 3° (N) 2,675 7.1 -31.0°
Sets 01:57:59 0° 6° (N) 3,625 7.8 -31.4°
